Theta_e
292 295 297 295 294 297 294 295 289 291 293 300 301 301 302 309 319 319 321 320 321 317 316 317 318 320 320 320 319 319 317 316 315 313 313 312 311 310 303 300 298 298 296 294
291 296 298 294 296 299 299 298 298 297 298 305 305 303 302 307 315 317 317 317 317 316 314 315 314 315 316 315 314 315 314 311 313 313 312 311 309 303 301 299 295 294 293 292
285 293 295 291 294 298 299 299 299 295 301 305 302 300 299 303 308 311 314 314 313 313 315 314 313 313 312 313 314 313 312 312 312 311 309 309 305 302 299 294 292 291 291 291
286 289 284 295 301 300 299 299 300 301 303 305 303 301 300 301 307 307 310 309 311 311 310 310 313 315 312 312 312 312 311 311 310 308 306 305 304 301 297 294 292 291 290 289
286 287 292 296 297 296 295 296 300 301 304 304 306 306 302 299 304 308 309 310 309 309 309 309 310 311 310 309 309 309 309 309 308 307 305 305 302 300 297 294 293 292 290 289
290 285 282 293 299 303 302 292 301 303 302 300 300 299 298 299 302 307 308 309 308 309 308 308 308 309 308 307 307 307 307 306 306 306 304 301 300 299 298 297 295 294 291 289
289 287 292 299 301 304 289 291 302 304 301 299 296 296 298 300 300 306 307 308 309 309 308 308 310 310 307 307 306 308 307 305 304 303 301 300 299 299 298 297 295 293 290 288
287 286 284 302 300 293 297 300 304 305 300 298 298 298 298 299 299 302 305 306 307 305 305 308 306 305 303 302 304 304 303 302 301 301 302 301 299 298 297 295 292 288 286 284
290 288 297 304 302 304 301 299 301 306 302 300 299 298 298 297 297 299 302 303 304 302 301 303 304 303 300 301 302 301 300 300 297 295 295 296 296 293 294 295 293 289 284 282
292 295 298 301 303 305 304 302 305 308 303 301 298 298 297 297 297 297 298 301 302 301 301 299 301 301 301 302 299 295 292 291 291 290 289 290 289 289 289 293 289 285 283 281
292 297 298 301 302 303 302 304 305 304 302 300 299 298 298 297 297 297 298 299 299 298 298 298 300 300 299 297 295 292 291 290 289 289 288 287 287 288 288 285 287 284 282 282
291 297 296 297 301 305 301 300 303 302 300 300 299 298 299 298 298 298 298 299 297 298 298 298 299 298 298 297 295 293 291 290 289 288 287 287 286 284 289 289 289 288 288 285
297 301 300 301 303 307 303 300 303 303 301 298 299 299 299 299 299 299 299 299 299 299 298 298 299 298 298 297 295 293 290 289 289 288 286 284 282 283 283 284 290 289 288 288
303 301 299 301 300 304 304 303 305 303 302 300 299 300 300 299 300 299 299 299 300 300 300 300 300 299 299 298 294 291 290 290 287 286 284 282 282 282 283 283 281 282 287 288
302 301 298 300 304 303 302 302 301 299 301 300 300 300 300 300 299 300 301 301 302 302 302 301 300 299 300 300 293 291 289 288 287 287 285 284 283 283 283 283 283 283 284 287
301 300 299 298 302 301 300 298 298 298 300 300 300 301 302 302 302 302 302 303 301 301 302 301 300 300 300 299 295 294 293 292 290 289 288 287 287 286 285 285 285 283 283 283
296 294 295 296 298 297 299 303 302 300 300 300 301 303 304 303 303 302 303 303 301 300 300 299 297 298 297 295 293 292 292 291 289 291 291 289 286 285 284 284 282 282 282 283
298 297 296 295 296 296 297 304 302 301 300 301 302 302 303 302 301 300 299 299 298 297 297 297 296 295 296 294 293 291 291 291 292 291 290 288 286 285 285 284 283 283 283 284
297 296 296 297 297 297 298 298 302 301 300 301 301 301 302 301 300 297 297 296 294 293 293 295 295 295 294 293 292 291 292 292 292 290 289 286 286 284 284 284 284 284 284 284
295 295 296 296 295 296 298 301 302 300 300 300 300 300 298 298 297 297 296 293 294 294 294 296 295 292 291 292 292 291 292 291 290 289 289 287 286 285 284 284 285 284 284 284
294 295 294 294 292 294 295 297 298 298 299 300 300 299 298 297 297 296 294 292 291 294 295 294 293 292 291 292 292 291 291 290 290 289 288 287 286 285 285 285 285 285 284 283
292 292 293 294 293 292 293 294 295 296 296 297 298 298 297 296 296 296 296 292 290 289 292 292 290 287 289 288 291 290 290 290 288 287 287 286 286 285 285 285 284 284 283 282
292 293 293 292 291 290 292 292 293 294 294 296 296 296 295 294 295 293 291 292 292 289 289 287 286 286 287 291 291 290 290 289 288 288 287 287 286 286 285 283 283 282 282 282
291 292 291 291 291 290 287 290 292 293 294 295 295 295 295 293 293 293 291 287 287 288 288 288 288 287 289 292 292 290 290 290 289 288 287 286 286 285 284 283 282 282 282 282
291 291 290 289 288 288 289 291 292 293 293 293 293 294 294 295 294 290 290 288 286 288 289 287 287 288 292 292 290 290 290 289 288 287 287 286 285 284 283 283 282 281 282 282
290 289 290 290 289 290 290 291 290 292 292 291 292 293 292 293 292 291 291 290 291 289 290 291 292 292 291 291 290 289 289 288 288 286 285 284 284 283 282 282 282 282 281 281
290 289 289 289 290 291 291 291 291 291 291 291 290 291 292 291 291 291 290 290 290 290 289 289 289 289 290 290 289 288 288 287 286 284 283 283 283 282 281 280 280 280 281 281
Wind_Speed
13 17 9 13 20 18 10 5 2 7 8 13 15 16 18 16 16 20 15 14 15 16 13 16 14 13 17 13 16 14 17 16 16 16 17 19 15 14 12 13 11 10 11 10
16 5 11 14 16 10 6 13 4 10 7 11 8 15 19 18 16 18 15 15 16 16 17 17 18 15 13 13 16 19 6 17 16 17 18 17 15 14 13 12 12 12 10 8
7 15 7 4 8 10 11 17 13 12 10 11 18 14 13 14 15 14 13 13 15 14 13 13 16 18 15 12 16 16 16 12 16 17 18 15 15 14 13 13 11 10 7 7
7 11 5 4 11 14 17 15 17 17 19 10 6 5 5 9 10 13 15 15 11 12 13 13 8 12 20 15 10 20 13 13 15 17 17 14 14 14 13 10 11 8 7 7
3 5 5 2 9 12 8 6 15 16 17 13 8 5 6 18 12 14 13 12 11 10 14 10 12 9 17 15 13 16 15 14 15 16 17 15 14 12 11 11 9 7 6 7
2 4 3 5 14 16 2 3 14 15 11 13 8 2 3 10 11 12 9 8 11 13 13 13 12 13 17 14 14 15 14 15 14 15 15 15 14 12 7 9 10 7 7 6
2 2 1 10 16 12 5 8 17 12 5 8 5 3 5 7 12 11 10 12 10 12 11 10 10 13 16 14 17 14 14 14 15 13 13 12 10 10 10 10 9 7 6 6
3 1 2 5 8 6 6 6 9 11 4 4 4 3 6 8 9 10 12 11 10 11 10 9 12 14 17 15 14 15 16 16 14 11 9 8 11 9 10 11 10 6 6 4
3 6 5 4 3 7 4 5 6 6 7 7 5 3 3 5 7 9 8 9 10 11 13 11 9 14 18 12 14 16 16 14 11 10 8 8 9 8 7 8 7 4 5 5
5 2 3 3 3 5 4 5 7 1 9 6 6 5 5 4 4 6 6 8 9 11 11 12 11 13 16 14 14 15 14 12 9 10 11 10 7 5 8 7 6 5 5 3
5 5 5 3 1 3 1 5 7 8 6 7 7 6 5 3 5 5 7 7 8 9 10 10 11 12 13 13 15 15 13 11 11 9 10 10 9 5 7 4 6 7 4 4
5 4 4 6 3 4 2 1 4 8 6 6 6 6 7 4 3 4 6 7 10 10 10 10 10 12 12 12 14 14 13 9 8 9 8 8 9 8 15 11 11 7 6 5
4 5 4 6 6 5 3 2 1 8 9 10 7 7 6 5 4 7 5 7 9 11 10 11 10 12 10 10 11 11 11 10 8 9 7 7 5 9 9 5 10 9 8 8
7 3 3 3 5 5 4 4 3 8 8 8 8 8 6 6 8 6 7 7 10 11 11 10 9 9 10 9 12 11 11 14 8 7 7 6 6 6 6 6 5 3 6 6
6 6 2 2 5 4 3 3 5 7 7 9 9 10 9 9 8 8 9 10 9 10 10 9 8 7 7 10 12 10 9 7 7 7 6 7 5 5 5 5 5 4 3 7
6 6 6 5 5 4 3 2 4 5 7 7 8 8 8 9 9 9 10 9 9 9 10 11 10 5 5 8 11 8 8 12 8 7 7 6 5 5 5 4 5 5 5 3
4 1 2 1 2 3 4 5 7 6 7 8 8 7 8 10 10 10 7 8 9 9 10 10 7 4 8 11 12 7 7 8 10 7 6 5 5 6 5 5 5 5 3 2
7 5 4 3 2 4 4 4 7 9 8 8 8 7 9 12 10 9 8 9 10 8 7 8 8 6 7 9 8 6 7 9 10 9 8 7 6 6 6 6 6 5 4 4
7 6 4 5 5 6 8 8 8 9 8 9 9 8 8 9 12 12 12 12 11 10 4 7 12 9 6 7 7 6 7 9 9 7 6 7 6 5 6 5 5 5 5 5
7 5 5 4 5 5 7 3 8 9 7 8 9 9 10 11 14 13 11 7 5 6 6 7 8 7 7 8 9 6 8 8 9 7 7 6 6 6 5 6 5 6 5 5
7 5 3 3 4 4 4 3 5 8 8 9 10 13 12 12 13 15 14 9 3 7 8 9 6 4 5 8 7 7 8 8 9 8 9 8 8 7 7 6 6 6 5 5
6 5 3 1 1 3 3 2 3 5 7 7 9 12 14 13 12 10 8 10 3 8 7 5 5 6 6 8 6 7 8 9 7 7 7 8 8 8 7 7 7 6 5 5
5 5 4 3 2 2 3 3 4 6 7 9 11 13 12 10 8 11 8 2 6 9 6 5 5 7 9 7 6 7 8 8 7 7 7 7 8 8 7 7 6 6 5 5
5 5 5 5 4 4 4 3 5 6 8 10 14 14 14 13 8 5 7 8 10 9 6 5 8 10 10 7 7 7 8 9 9 8 8 9 7 7 6 6 6 5 5 5
5 5 5 5 5 3 4 4 6 7 10 10 13 11 13 9 9 5 7 8 10 8 6 8 10 11 9 8 9 9 8 7 7 8 7 7 6 6 5 6 5 5 5 5
5 4 3 4 4 3 3 4 5 5 7 8 8 9 9 8 9 10 9 9 7 8 6 6 8 9 9 9 9 9 8 8 9 8 8 7 7 6 6 6 5 5 5 5
5 5 4 4 4 2 4 4 6 8 8 8 9 8 9 8 9 10 11 9 8 8 8 6 8 9 9 8 8 8 8 7 8 8 7 7 7 6 6 6 6 5 6 6
Wind_Direction
263 283 317 21 21 24 66 278 308 321 335 14 23 352 333 335 53 73 78 88 103 98 95 99 95 98 103 116 97 72 116 119 122 116 110 109 108 101 100 90 90 88 81 68
306 268 52 57 55 52 1 359 326 18 37 16 36 11 356 14 45 75 83 82 87 90 95 94 95 87 90 91 96 99 333 86 119 124 98 102 103 102 98 91 81 78 73 76
285 313 327 11 357 345 358 8 351 0 357 354 42 355 337 6 43 54 69 84 88 84 93 102 111 104 85 84 91 106 114 128 111 107 101 107 108 108 98 94 94 82 71 66
292 331 50 157 27 329 335 27 13 7 359 340 63 248 332 355 62 35 51 43 66 92 91 74 72 118 114 108 122 106 111 112 104 106 113 115 108 103 101 99 93 93 80 61
338 332 292 283 347 330 339 39 18 358 346 358 264 250 344 4 360 71 74 69 57 76 94 103 103 103 101 111 114 114 121 115 113 120 119 110 101 108 109 113 105 85 78 70
328 308 302 307 317 325 201 198 11 356 358 347 333 348 332 353 351 76 79 62 100 96 93 87 94 111 110 115 118 114 116 115 115 101 106 111 115 124 116 108 105 98 78 58
248 228 328 306 320 325 41 324 330 353 338 9 36 336 323 351 25 50 74 74 76 87 93 98 110 117 104 116 107 113 108 103 100 101 108 113 121 113 114 109 104 94 79 53
349 14 350 308 331 55 256 289 311 335 139 100 98 43 1 17 39 42 64 74 83 89 86 93 98 109 101 93 106 107 100 98 101 106 113 121 122 116 114 111 102 99 85 62
183 218 216 193 218 279 255 262 307 328 143 144 133 105 45 29 41 61 60 95 96 96 98 88 94 107 104 112 107 104 103 101 89 87 86 84 95 98 93 110 110 98 74 67
9 210 220 199 202 166 294 312 315 317 134 138 131 120 104 83 66 71 69 95 100 103 98 92 99 101 106 108 102 102 97 90 91 89 83 75 71 78 96 119 109 101 92 113
277 301 358 114 244 188 168 341 42 85 112 135 138 133 124 110 101 95 96 89 98 103 102 102 109 104 104 111 111 104 100 99 92 91 91 82 64 55 95 55 122 122 169 140
239 235 194 249 248 183 144 50 120 135 131 142 148 134 125 119 99 115 120 123 110 106 106 104 102 103 107 111 111 115 113 112 109 104 102 102 103 87 48 74 96 119 138 108
231 207 216 254 272 185 165 126 82 147 146 145 145 129 121 125 120 132 124 116 118 123 116 118 114 111 110 113 113 108 110 113 108 103 108 113 99 106 114 44 70 67 61 61
230 178 298 290 261 203 176 141 105 138 135 141 142 136 129 124 137 140 133 121 118 119 115 113 117 114 123 121 111 113 111 111 109 114 118 114 121 112 109 118 124 61 16 39
126 90 136 278 357 135 93 126 135 143 143 142 149 148 148 155 150 146 136 135 133 125 119 123 125 128 134 121 116 109 112 110 116 129 128 116 108 107 107 108 99 97 39 33
120 104 73 56 41 111 109 138 153 157 154 155 147 139 151 140 144 145 139 139 144 134 134 130 144 158 154 127 134 137 143 141 136 134 137 129 120 111 107 116 95 83 78 84
116 95 87 139 30 336 330 222 187 183 159 161 159 131 141 136 129 137 128 111 100 107 128 125 122 124 128 132 139 147 146 143 136 130 139 140 124 122 126 113 103 93 95 101
107 98 90 86 347 315 305 288 175 171 176 153 146 135 147 146 136 134 128 122 116 106 101 116 116 113 116 115 115 125 128 124 117 127 127 125 124 131 128 108 108 107 93 73
98 90 55 22 349 317 282 237 193 171 160 156 163 164 152 139 138 133 139 137 128 121 152 123 116 104 95 96 106 101 103 110 111 118 122 121 108 105 100 109 111 109 104 91
106 87 56 350 336 349 332 161 150 157 160 158 154 146 140 141 139 136 130 112 117 137 135 115 103 106 107 111 102 103 115 111 112 118 129 122 119 120 113 97 110 106 102 98
117 105 68 342 348 356 5 351 140 152 156 163 156 154 143 141 136 134 127 123 138 128 121 113 115 106 102 124 113 115 113 117 119 122 123 122 117 111 106 105 102 100 99 93
118 119 117 71 8 23 17 38 89 117 126 130 126 129 127 131 133 116 118 131 144 104 97 101 103 97 123 118 113 113 120 122 114 112 111 114 114 110 109 111 105 105 104 92
90 102 107 112 109 73 60 55 86 116 126 135 130 127 126 115 119 129 118 94 100 96 99 101 101 117 124 112 114 117 117 108 107 105 111 110 113 119 122 118 115 111 97 93
101 89 105 108 105 91 79 50 78 96 98 114 116 121 124 114 88 75 91 94 99 100 100 114 107 101 94 99 102 96 100 109 110 108 106 106 113 115 110 112 104 100 100 97
97 104 112 115 113 105 104 112 100 99 103 107 106 102 104 108 124 117 106 106 100 93 85 88 90 90 97 99 93 92 96 102 108 104 107 113 111 106 105 105 111 110 104 100
120 103 107 115 115 119 118 120 122 105 105 98 95 102 96 103 111 108 94 78 78 89 84 91 93 90 88 92 94 95 98 101 103 102 106 102 101 98 99 97 91 88 93 93
103 105 108 120 125 125 114 114 110 116 114 119 116 122 116 105 107 110 99 89 84 80 79 76 87 89 90 92 92 93 96 94 97 102 97 101 100 100 99 98 97 91 85 88